TimeEDT,TemperatureF,Dew PointF,Humidity,Sea Level PressureIn,VisibilityMPH,Wind Direction,Wind SpeedMPH,Gust SpeedMPH,PrecipitationIn,Events,Conditions,WindDirDegrees,DateUTC
12:56 AM,53.1,41.0,64,30.20,10.0,East,3.5,-,N/A,,Clear,90,2013-03-11 04:56:00
1:56 AM,52.0,39.0,61,30.18,10.0,Calm,Calm,-,N/A,,Clear,0,2013-03-11 05:56:00
2:56 AM,50.0,37.9,63,30.15,10.0,ENE,3.5,-,N/A,,Clear,70,2013-03-11 06:56:00
3:56 AM,48.9,34.0,56,30.14,10.0,ENE,4.6,-,N/A,,Clear,70,2013-03-11 07:56:00
4:56 AM,48.0,30.0,50,30.12,10.0,East,3.5,-,N/A,,Clear,80,2013-03-11 08:56:00
5:56 AM,46.9,28.9,50,30.12,10.0,Calm,Calm,-,N/A,,Clear,0,2013-03-11 09:56:00
6:56 AM,46.9,30.9,54,30.12,10.0,East,3.5,-,N/A,,Clear,80,2013-03-11 10:56:00
7:56 AM,46.0,35.1,66,30.12,10.0,ENE,3.5,-,N/A,,Scattered Clouds,60,2013-03-11 11:56:00
8:56 AM,48.0,37.9,68,30.12,10.0,ESE,3.5,-,N/A,,Mostly Cloudy,110,2013-03-11 12:56:00
9:13 AM,48.2,39.2,71,30.11,10.0,East,4.6,-,N/A,,Mostly Cloudy,100,2013-03-11 13:13:00
9:56 AM,52.0,43.0,71,30.12,10.0,Calm,Calm,-,N/A,,Mostly Cloudy,0,2013-03-11 13:56:00
10:01 AM,51.8,42.8,71,30.12,10.0,Calm,Calm,-,N/A,,Overcast,0,2013-03-11 14:01:00
10:56 AM,59.0,48.0,67,30.11,10.0,East,3.5,-,N/A,,Mostly Cloudy,80,2013-03-11 14:56:00
11:56 AM,66.0,50.0,56,30.08,10.0,Variable,4.6,-,N/A,,Mostly Cloudy,0,2013-03-11 15:56:00
12:56 PM,71.1,48.0,44,30.05,10.0,South,20.7,29.9,N/A,,Mostly Cloudy,170,2013-03-11 16:56:00
1:56 PM,73.0,48.9,42,30.01,10.0,SSE,15.0,20.7,N/A,,Mostly Cloudy,160,2013-03-11 17:56:00
2:56 PM,73.0,46.9,39,29.98,10.0,South,17.3,23.0,N/A,,Overcast,170,2013-03-11 18:56:00
3:56 PM,73.0,48.0,41,29.92,10.0,SSE,18.4,26.5,N/A,,Mostly Cloudy,150,2013-03-11 19:56:00
4:56 PM,72.0,48.0,43,29.93,10.0,South,20.7,26.5,N/A,,Mostly Cloudy,170,2013-03-11 20:56:00
5:56 PM,70.0,50.0,49,29.90,10.0,SSE,17.3,-,N/A,,Overcast,150,2013-03-11 21:56:00
6:56 PM,69.1,50.0,51,29.88,10.0,SSE,17.3,25.3,N/A,,Overcast,150,2013-03-11 22:56:00
7:56 PM,68.0,51.1,55,29.89,10.0,SSE,12.7,23.0,N/A,,Overcast,150,2013-03-11 23:56:00
8:56 PM,66.9,51.1,57,29.91,10.0,SSE,11.5,-,N/A,,Overcast,150,2013-03-12 00:56:00
9:56 PM,66.0,52.0,60,29.89,10.0,SE,12.7,-,N/A,,Overcast,140,2013-03-12 01:56:00
10:56 PM,64.0,55.0,73,29.87,10.0,ESE,10.4,-,0.00,,Overcast,120,2013-03-12 02:56:00
11:56 PM,62.1,55.9,80,29.87,10.0,SE,8.1,-,0.00,,Overcast,140,2013-03-12 03:56:00